Flag for Germany Weather past 2 weeks in Ansbach, Bavaria, Germany

Now
57 °F

Mostly cloudy.


Feels Like: 56 °F
Forecast: 53 / 67 °F
Wind: 7 mph from West

Location: Ansbach / Katterbach

Current Time: Sep 2, 2015 at 2:43:07 AM

Latest Report: Sep 2, 2015 at 1:58 AM


Visibility: N/A

Pressure: 30.05 "Hg

Humidity: 100%

Dew point: 57 °F

Location of AnsbachLocation

Historic Weather in Ansbach — Graph

°F

Ansbach temperature yesterday

Maximum temperature yesterday: 82 °F (at 12:58 PM)
Minimum temperature yesterday: 59 °F (at 10:58 PM)
Average temperature yesterday: 70 °F

Past Weeks' High & Low Weather Summary

 TemperatureHumidityPressure
High92 °F (Aug 30, 3:58 PM)100% (Aug 18, 4:57 AM)30.31 "Hg (Aug 18, 4:57 AM)
Low49 °F (Aug 26, 5:58 AM)28% (Aug 31, 5:58 PM)29.73 "Hg (Aug 24, 3:58 PM)
Average67 °F69%30.04 "Hg
* Reported Aug 18 4:57 AM — Sep 2 12:58 AM, Ansbach, Weather by CustomWeather, © 2015

Note: Actual official high and low records may vary slightly from our data, if they occured in-between our weather recording intervals... More about our weather records

Advertising

Ansbach weather history for previous 24 hours

 ConditionsComfort  
Time TempWeatherWind HumidityBarometerVisibility
12:58 AM
Wed, Sep 2
58 °FOvercast.7 mph100%30.02 "HgN/A
10:58 PM
Tue, Sep 1
59 °FMostly cloudy.7 mph100%30.00 "HgN/A
9:58 PM60 °FOvercast.8 mph100%30.00 "HgN/A
8:58 PM60 °FLight rain. Passing clouds.9 mph100%29.98 "HgN/A
7:58 PM61 °FLight rain. Scattered clouds.8 mph100%29.96 "HgN/A
7:04 PM61 °FDrizzle. Partly sunny.10 mph100%29.93 "HgN/A
6:58 PM63 °FDrizzle. Partly sunny.12 mph100%29.93 "HgN/A
5:58 PM73 °FLight rain. Scattered clouds.13 mph61%29.86 "HgN/A
4:58 PM72 °FBroken clouds.12 mph69%29.84 "HgN/A
3:58 PM69 °FScattered clouds.10 mph86%29.84 "HgN/A
2:58 PM73 °FBroken clouds.21 mph57%29.85 "HgN/A
1:58 PM79 °FPartly sunny.15 mph40%29.82 "HgN/A
12:58 PM82 °FPartly sunny.15 mph35%29.80 "HgN/A
11:58 AM82 °FSunny.6 mph40%29.79 "HgN/A
10:58 AM81 °FSunny.7 mph42%29.79 "HgN/A
9:58 AM76 °FSunny.5 mph52%29.81 "HgN/A
8:58 AM72 °FPassing clouds.3 mph61%29.81 "HgN/A
7:58 AM68 °FSunny.2 mph64%29.82 "HgN/A
6:58 AM66 °FClear.3 mph64%29.86 "HgN/A
4:58 AM67 °FClear.3 mph64%29.84 "HgN/A
3:58 AM70 °FClear.3 mph57%29.83 "HgN/A
2:58 AM70 °FClear.3 mph58%29.90 "HgN/A
Weather by CustomWeather, © 2015

See weather overviewHow to use our weather pages